| time (UTC) | temp F | wind direction | speed knots | gust knots | rain 1hr in | rain 24hr in | rain mn in | humidity % | barometer mb |
| 20260506044541 | 63 | 204 | 13.0 | 22.6 | 0.00 | 0.28 | 0.00 | 49 | 1006.2 |
| 20260506043032 | 63 | 204 | 8.7 | 18.2 | 0.00 | 0.28 | 0.00 | 49 | 1006.2 |
| 20260506041535 | 64 | 204 | 8.7 | 14.8 | 0.00 | 0.28 | 0.00 | 49 | 1006.4 |
| 20260506040029 | 64 | 204 | 8.7 | 15.6 | 0.00 | 0.28 | 0.00 | 49 | 1006.5 |
| 20260506034518 | 64 | 204 | 9.6 | 17.4 | 0.00 | 0.28 | 0.28 | 50 | 1006.5 |
| 20260506033016 | 64 | 204 | 7.0 | 15.6 | 0.00 | 0.28 | 0.28 | 50 | 1006.6 |
| 20260506031508 | 65 | 204 | 7.8 | 14.8 | 0.00 | 0.28 | 0.28 | 49 | 1006.7 |
| 20260506030046 | 65 | 204 | 7.8 | 16.5 | 0.00 | 0.28 | 0.28 | 49 | 1006.6 |
| 20260506024540 | 66 | 204 | 9.6 | 19.1 | 0.00 | 0.28 | 0.28 | 49 | 1006.6 |
| 20260506023003 | 66 | 204 | 10.4 | 17.4 | 0.00 | 0.28 | 0.28 | 49 | 1006.7 |
| 20260506021547 | 66 | 204 | 8.7 | 15.6 | 0.00 | 0.28 | 0.28 | 48 | 1006.7 |
| 20260506020026 | 67 | 204 | 7.8 | 13.9 | 0.00 | 0.28 | 0.28 | 47 | 1006.9 |
| 20260506014504 | 67 | 204 | 7.0 | 13.0 | 0.00 | 0.28 | 0.28 | 47 | 1006.9 |
| 20260506013043 | 68 | 204 | 5.2 | 13.0 | 0.00 | 0.28 | 0.28 | 45 | 1006.7 |
| 20260506011518 | 68 | 204 | 8.7 | 18.2 | 0.00 | 0.28 | 0.28 | 45 | 1006.4 |
| 20260506010056 | 68 | 204 | 7.0 | 13.0 | 0.00 | 0.28 | 0.28 | 45 | 1006.3 |
| 20260506004537 | 68 | 204 | 5.2 | 11.3 | 0.00 | 0.28 | 0.28 | 45 | 1006.3 |
| 20260506003015 | 69 | 204 | 5.2 | 11.3 | 0.00 | 0.28 | 0.28 | 45 | 1006.3 |
| 20260506001551 | 69 | 204 | 3.5 | 13.9 | 0.00 | 0.28 | 0.28 | 44 | 1006.3 |
| 20260506000028 | 69 | 204 | 7.0 | 20.0 | 0.00 | 0.28 | 0.28 | 44 | 1005.9 |
| 20260505234506 | 69 | 204 | 7.0 | 15.6 | 0.00 | 0.32 | 0.28 | 44 | 1005.7 |
| 20260505233043 | 69 | 204 | 7.0 | 15.6 | 0.00 | 0.32 | 0.28 | 44 | 1005.7 |
| 20260505231523 | 69 | 204 | 9.6 | 19.1 | 0.00 | 0.32 | 0.28 | 44 | 1005.4 |
| 20260505230111 | 70 | 204 | 11.3 | 20.0 | 0.00 | 0.32 | 0.28 | 44 | 1005.5 |
| 20260505224552 | 70 | 204 | 12.2 | 20.0 | 0.00 | 0.32 | 0.28 | 44 | 1005.4 |
| 20260505223027 | 70 | 204 | 9.6 | 20.9 | 0.00 | 0.32 | 0.28 | 45 | 1005.2 |
| 20260505221505 | 70 | 204 | 8.7 | 20.0 | 0.00 | 0.32 | 0.28 | 45 | 1005.2 |
| 20260505220040 | 70 | 204 | 10.4 | 19.1 | 0.00 | 0.32 | 0.28 | 44 | 1005.2 |
| 20260505214526 | 69 | 204 | 9.6 | 17.4 | 0.00 | 0.32 | 0.28 | 45 | 1005.1 |
| 20260505213105 | 69 | 204 | 8.7 | 16.5 | 0.00 | 0.32 | 0.28 | 46 | 1005.2 |
| 20260505211536 | 70 | 203 | 9.6 | 19.1 | 0.07 | 0.32 | 0.28 | 43 | 1005.1 |
| 20260505210015 | 71 | 204 | 7.0 | 20.9 | 0.11 | 0.32 | 0.28 | 42 | 1005.0 |
| 20260505204554 | 72 | 204 | 10.4 | 22.6 | 0.13 | 0.32 | 0.28 | 40 | 1004.9 |
| 20260505203030 | 72 | 204 | 12.2 | 26.9 | 0.13 | 0.32 | 0.28 | 40 | 1004.8 |
| 20260505201512 | 72 | 204 | 11.3 | 24.3 | 0.06 | 0.25 | 0.22 | 40 | 1004.7 |
| 20260505200047 | 72 | 204 | 8.7 | 21.7 | 0.06 | 0.21 | 0.18 | 40 | 1004.7 |
| 20260505194525 | 73 | 204 | 13.0 | 20.9 | 0.08 | 0.19 | 0.16 | 39 | 1004.7 |
| 20260505193005 | 73 | 204 | 7.8 | 22.6 | 0.08 | 0.19 | 0.16 | 38 | 1004.9 |
| 20260505191607 | 74 | 204 | 10.4 | 26.1 | 0.08 | 0.19 | 0.16 | 38 | 1004.9 |
| 20260505190024 | 73 | 204 | 12.2 | 26.9 | 0.08 | 0.15 | 0.12 | 37 | 1005.4 |
| 20260505184504 | 75 | 204 | 7.0 | 18.2 | 0.06 | 0.11 | 0.08 | 37 | 1005.7 |
| 20260505183044 | 75 | 204 | 5.2 | 17.4 | 0.06 | 0.11 | 0.08 | 38 | 1006.1 |
| 20260505181518 | 74 | 204 | 13.9 | 24.3 | 0.06 | 0.11 | 0.08 | 36 | 1006.0 |
| 20260505180105 | 74 | 204 | 11.3 | 25.2 | 0.02 | 0.07 | 0.04 | 38 | 1006.2 |
| 20260505174538 | 74 | 204 | 9.6 | 20.9 | 0.00 | 0.05 | 0.02 | 38 | 1006.3 |
| 20260505173017 | 73 | 208 | 4.3 | 19.1 | 0.00 | 0.05 | 0.02 | 41 | 1006.3 |
| 20260505171552 | 73 | 208 | 5.2 | 15.6 | 0.01 | 0.05 | 0.02 | 43 | 1006.4 |
| 20260505170030 | 74 | 204 | 3.5 | 13.0 | 0.02 | 0.05 | 0.02 | 43 | 1006.8 |
| 20260505164507 | 72 | 204 | 5.2 | 20.9 | 0.02 | 0.05 | 0.02 | 45 | 1006.8 |
| 20260505163044 | 72 | 204 | 6.1 | 20.0 | 0.02 | 0.05 | 0.02 | 45 | 1007.1 |
| 20260505161524 | 71 | 204 | 11.3 | 20.9 | 0.01 | 0.04 | 0.01 | 45 | 1007.2 |
| 20260505153023 | 71 | 204 | 3.5 | 18.2 | 0.00 | 0.03 | 0.00 | 49 | 1007.7 |
| 20260505151602 | 68 | 204 | 7.0 | 17.4 | 0.00 | 0.03 | 0.00 | 51 | 1007.7 |
| 20260505124520 | 64 | 204 | 6.1 | 13.9 | 0.00 | 0.03 | 0.00 | 58 | 1008.3 |
| 20260505123011 | 63 | 204 | 7.0 | 14.8 | 0.00 | 0.03 | 0.00 | 58 | 1008.3 |
| 20260505121559 | 62 | 204 | 7.0 | 17.4 | 0.00 | 0.03 | 0.00 | 59 | 1008.3 |
| 20260505121502 | 62 | 204 | 7.8 | 17.4 | 0.00 | 0.03 | 0.00 | 60 | 1008.4 |
| 20260505120056 | 60 | 204 | 6.1 | 12.2 | 0.00 | 0.03 | 0.00 | 63 | 1008.2 |
| 20260505114542 | 60 | 204 | 6.1 | 10.4 | 0.00 | 0.03 | 0.00 | 64 | 1008.0 |
| 20260505113030 | 59 | 204 | 6.1 | 9.6 | 0.00 | 0.03 | 0.00 | 66 | 1008.2 |
| 20260505111517 | 58 | 204 | 7.8 | 13.0 | 0.00 | 0.03 | 0.00 | 67 | 1008.1 |
| 20260505101531 | 56 | 204 | 9.6 | 14.8 | 0.00 | 0.03 | 0.00 | 69 | 1007.7 |
| 20260505100016 | 56 | 204 | 7.8 | 14.8 | 0.00 | 0.03 | 0.00 | 68 | 1007.7 |
| 20260505094504 | 57 | 204 | 8.7 | 16.5 | 0.00 | 0.03 | 0.00 | 68 | 1007.6 |
| 20260505093100 | 56 | 204 | 7.8 | 13.0 | 0.00 | 0.03 | 0.00 | 68 | 1007.5 |
| 20260505091544 | 57 | 204 | 7.0 | 13.0 | 0.00 | 0.03 | 0.00 | 68 | 1007.5 |
| 20260505090037 | 57 | 204 | 7.8 | 12.2 | 0.00 | 0.03 | 0.00 | 66 | 1007.5 |
| 20260505084527 | 57 | 204 | 6.1 | 12.2 | 0.00 | 0.03 | 0.00 | 65 | 1007.6 |
| 20260505083013 | 57 | 204 | 7.0 | 13.9 | 0.00 | 0.03 | 0.00 | 65 | 1007.7 |
| 20260505081624 | 57 | 204 | 7.8 | 13.9 | 0.00 | 0.03 | 0.00 | 64 | 1007.7 |
| 20260505080057 | 57 | 204 | 8.7 | 13.9 | 0.00 | 0.03 | 0.00 | 64 | 1007.6 |
| 20260505074533 | 57 | 204 | 6.1 | 12.2 | 0.00 | 0.03 | 0.00 | 64 | 1007.6 |
| 20260505073033 | 56 | 204 | 6.1 | 11.3 | 0.00 | 0.03 | 0.00 | 65 | 1007.6 |
| 20260505071515 | 56 | 204 | 7.0 | 10.4 | 0.00 | 0.03 | 0.00 | 65 | 1007.7 |
| 20260505070100 | 56 | 204 | 5.2 | 8.7 | 0.00 | 0.03 | 0.00 | 65 | 1007.9 |
| 20260505064542 | 56 | 204 | 6.1 | 9.6 | 0.00 | 0.03 | 0.00 | 64 | 1008.0 |
| 20260505063046 | 56 | 204 | 7.0 | 12.2 | 0.00 | 0.03 | 0.00 | 64 | 1008.1 |
| 20260505061533 | 56 | 204 | 6.1 | 10.4 | 0.00 | 0.03 | 0.00 | 63 | 1008.2 |
| 20260505060010 | 56 | 204 | 6.1 | 10.4 | 0.00 | 0.03 | 0.00 | 63 | 1008.3 |